Time,TemperatureF,DewpointF,PressureIn,WindDirection,WindDirectionDegrees,WindSpeedMPH,WindSpeedGustMPH,Humidity,HourlyPrecipIn,Conditions,Clouds,dailyrainin,SoftwareType,DateUTC
2013-01-21 00:00:00,32.7,18.8,30.27,North,7,10.0,13.0,56,0.00,,---,0.00,VWS V14.00,2013-01-21 06:00:00,
2013-01-21 00:01:00,32.6,18.2,30.27,NNE,20,3.0,10.0,55,0.00,,---,0.00,VWS V14.00,2013-01-21 06:01:00,
2013-01-21 00:02:00,32.6,18.7,30.27,North,359,8.0,11.0,56,0.00,,---,0.00,VWS V14.00,2013-01-21 06:02:00,
2013-01-21 00:03:00,32.6,18.7,30.27,NNE,21,6.0,15.0,56,0.00,,---,0.00,VWS V14.00,2013-01-21 06:03:00,
2013-01-21 00:04:00,32.6,18.2,30.27,NNE,26,6.0,15.0,55,0.00,,---,0.00,VWS V14.00,2013-01-21 06:04:00,
2013-01-21 00:05:00,32.5,18.1,30.27,NNE,30,9.0,13.0,55,0.00,,---,0.00,VWS V14.00,2013-01-21 06:05:00,
2013-01-21 00:06:00,32.5,18.1,30.27,NNE,21,6.0,10.0,55,0.00,,---,0.00,VWS V14.00,2013-01-21 06:06:00,
2013-01-21 00:07:00,32.5,18.1,30.27,NNE,28,0.0,10.0,55,0.00,,---,0.00,VWS V14.00,2013-01-21 06:07:00,
2013-01-21 00:08:00,32.5,18.6,30.27,NE,51,6.0,13.0,56,0.00,,---,0.00,VWS V14.00,2013-01-21 06:08:00,
2013-01-21 00:09:00,32.4,18.0,30.27,NNE,18,11.0,11.0,55,0.00,,---,0.00,VWS V14.00,2013-01-21 06:09:00,
2013-01-21 00:13:00,32.3,18.0,30.27,NE,41,10.0,13.0,55,0.00,,---,0.00,VWS V14.00,2013-01-21 06:13:00,
2013-01-21 00:14:00,32.3,18.0,30.27,NNE,25,12.0,15.0,55,0.00,,---,0.00,VWS V14.00,2013-01-21 06:14:00,
2013-01-21 00:20:00,32.4,18.0,30.27,NNE,23,13.0,14.0,55,0.00,,---,0.00,VWS V14.00,2013-01-21 06:20:00,
2013-01-21 00:24:00,31.9,17.6,30.27,NE,46,6.0,14.0,55,0.00,,---,0.00,VWS V14.00,2013-01-21 06:24:00,
2013-01-21 00:25:00,32.3,18.0,30.27,NNE,30,0.0,12.0,55,0.00,,---,0.00,VWS V14.00,2013-01-21 06:25:00,
2013-01-21 00:31:00,32.0,17.7,30.27,North,5,5.0,10.0,55,0.00,,---,0.00,VWS V14.00,2013-01-21 06:31:00,
2013-01-21 00:33:00,31.7,17.4,30.28,NE,40,5.0,6.0,55,0.00,,---,0.00,VWS V14.00,2013-01-21 06:33:00,
2013-01-21 00:36:00,31.6,17.3,30.28,NNE,32,4.0,4.0,55,0.00,,---,0.00,VWS V14.00,2013-01-21 06:36:00,
2013-01-21 00:37:00,31.8,17.5,30.27,North,8,13.0,13.0,55,0.00,,---,0.00,VWS V14.00,2013-01-21 06:37:00,
2013-01-21 00:38:00,31.5,17.2,30.28,NNE,29,6.0,12.0,55,0.00,,---,0.00,VWS V14.00,2013-01-21 06:38:00,
2013-01-21 00:39:00,31.5,17.2,30.28,NE,34,6.0,7.0,55,0.00,,---,0.00,VWS V14.00,2013-01-21 06:39:00,
2013-01-21 00:40:00,31.5,17.2,30.28,North,4,6.0,8.0,55,0.00,,---,0.00,VWS V14.00,2013-01-21 06:40:00,
2013-01-21 00:42:00,31.7,17.4,30.28,NE,40,5.0,10.0,55,0.00,,---,0.00,VWS V14.00,2013-01-21 06:42:00,
2013-01-21 00:43:00,31.4,17.1,30.28,NNE,13,9.0,11.0,55,0.00,,---,0.00,VWS V14.00,2013-01-21 06:43:00,
2013-01-21 00:50:00,31.2,16.9,30.28,NE,36,3.0,6.0,55,0.00,,---,0.00,VWS V14.00,2013-01-21 06:50:00,
2013-01-21 00:52:00,31.4,17.1,30.28,North,7,7.0,7.0,55,0.00,,---,0.00,VWS V14.00,2013-01-21 06:52:00,
2013-01-21 00:57:00,31.3,17.0,30.28,North,3,0.0,9.0,55,0.00,,---,0.00,VWS V14.00,2013-01-21 06:57:00,
2013-01-21 01:02:00,31.1,16.8,30.28,NE,44,4.0,9.0,55,0.00,,---,0.00,VWS V14.00,2013-01-21 07:02:00,
2013-01-21 01:07:00,31.0,16.7,30.28,North,359,9.0,14.0,55,0.00,,---,0.00,VWS V14.00,2013-01-21 07:07:00,
2013-01-21 01:12:00,30.9,17.1,30.29,NE,53,5.0,7.0,56,0.00,,---,0.00,VWS V14.00,2013-01-21 07:12:00,
2013-01-21 01:17:00,30.7,16.9,30.29,North,8,5.0,14.0,56,0.00,,---,0.00,VWS V14.00,2013-01-21 07:17:00,
2013-01-21 01:22:00,30.6,16.8,30.29,North,7,5.0,8.0,56,0.00,,---,0.00,VWS V14.00,2013-01-21 07:22:00,
2013-01-21 01:27:00,30.5,17.1,30.30,NE,39,4.0,12.0,57,0.00,,---,0.00,VWS V14.00,2013-01-21 07:27:00,
2013-01-21 01:32:00,30.3,16.9,30.30,NE,35,3.0,6.0,57,0.00,,---,0.00,VWS V14.00,2013-01-21 07:32:00,
2013-01-21 01:37:00,30.2,16.8,30.30,NE,39,9.0,9.0,57,0.00,,---,0.00,VWS V14.00,2013-01-21 07:37:00,
2013-01-21 01:42:00,30.1,16.7,30.30,NNE,25,7.0,10.0,57,0.00,,---,0.00,VWS V14.00,2013-01-21 07:42:00,
2013-01-21 01:47:00,30.0,17.0,30.30,NNE,27,11.0,11.0,58,0.00,,---,0.00,VWS V14.00,2013-01-21 07:47:00,
2013-01-21 01:52:00,29.9,16.9,30.30,NNE,32,0.0,5.0,58,0.00,,---,0.00,VWS V14.00,2013-01-21 07:52:00,
2013-01-21 01:57:00,29.8,16.8,30.31,North,3,4.0,12.0,58,0.00,,---,0.00,VWS V14.00,2013-01-21 07:57:00,
2013-01-21 02:02:00,29.7,16.8,30.31,NE,43,7.0,9.0,58,0.00,,---,0.00,VWS V14.00,2013-01-21 08:02:00,
2013-01-21 02:08:00,29.6,16.6,30.31,NE,44,1.0,9.0,58,0.00,,---,0.00,VWS V14.00,2013-01-21 08:08:00,
2013-01-21 02:13:00,29.5,16.6,30.31,NE,37,3.0,7.0,58,0.00,,---,0.00,VWS V14.00,2013-01-21 08:13:00,
2013-01-21 02:19:00,29.4,16.9,30.31,NNE,30,5.0,5.0,59,0.00,,---,0.00,VWS V14.00,2013-01-21 08:19:00,
2013-01-21 02:24:00,29.3,16.4,30.31,North,11,4.0,7.0,58,0.00,,---,0.00,VWS V14.00,2013-01-21 08:24:00,
2013-01-21 02:29:00,29.3,16.8,30.32,North,10,4.0,5.0,59,0.00,,---,0.00,VWS V14.00,2013-01-21 08:29:00,
2013-01-21 02:34:00,29.2,16.3,30.32,NNE,31,0.0,5.0,58,0.00,,---,0.00,VWS V14.00,2013-01-21 08:34:00,
2013-01-21 02:39:00,29.1,16.6,30.32,NNE,33,7.0,7.0,59,0.00,,---,0.00,VWS V14.00,2013-01-21 08:39:00,
2013-01-21 02:45:00,29.0,16.1,30.32,NE,47,5.0,8.0,58,0.00,,---,0.00,VWS V14.00,2013-01-21 08:45:00,
2013-01-21 02:50:00,29.0,16.1,30.32,NNE,16,4.0,6.0,58,0.00,,---,0.00,VWS V14.00,2013-01-21 08:50:00,
2013-01-21 02:55:00,28.9,16.0,30.32,NNE,25,5.0,10.0,58,0.00,,---,0.00,VWS V14.00,2013-01-21 08:55:00,
2013-01-21 03:00:00,28.9,16.0,30.32,North,4,5.0,9.0,58,0.00,,---,0.00,VWS V14.00,2013-01-21 09:00:00,
2013-01-21 03:05:00,28.8,15.9,30.32,NNE,17,9.0,9.0,58,0.00,,---,0.00,VWS V14.00,2013-01-21 09:05:00,
2013-01-21 03:10:00,28.8,15.9,30.32,NNE,25,3.0,7.0,58,0.00,,---,0.00,VWS V14.00,2013-01-21 09:10:00,
2013-01-21 03:16:00,28.7,15.8,30.32,NE,40,3.0,12.0,58,0.00,,---,0.00,VWS V14.00,2013-01-21 09:16:00,
2013-01-21 03:21:00,28.8,15.9,30.32,North,0,7.0,8.0,58,0.00,,---,0.00,VWS V14.00,2013-01-21 09:21:00,
2013-01-21 03:27:00,28.7,15.8,30.33,NNE,20,8.0,12.0,58,0.00,,---,0.00,VWS V14.00,2013-01-21 09:27:00,
2013-01-21 03:32:00,28.7,15.8,30.33,NNE,24,10.0,12.0,58,0.00,,---,0.00,VWS V14.00,2013-01-21 09:32:00,
2013-01-21 03:37:00,28.6,15.7,30.33,North,2,3.0,12.0,58,0.00,,---,0.00,VWS V14.00,2013-01-21 09:37:00,
2013-01-21 03:42:00,28.6,15.7,30.33,NNE,27,1.0,4.0,58,0.00,,---,0.00,VWS V14.00,2013-01-21 09:42:00,
2013-01-21 03:47:00,28.5,15.2,30.33,NNE,29,5.0,10.0,57,0.00,,---,0.00,VWS V14.00,2013-01-21 09:47:00,
2013-01-21 03:52:00,28.5,15.2,30.33,NNE,18,0.0,7.0,57,0.00,,---,0.00,VWS V14.00,2013-01-21 09:52:00,
2013-01-21 03:57:00,28.4,15.1,30.33,NNE,16,3.0,15.0,57,0.00,,---,0.00,VWS V14.00,2013-01-21 09:57:00,
2013-01-21 04:03:00,28.4,15.1,30.33,NNE,18,9.0,11.0,57,0.00,,---,0.00,VWS V14.00,2013-01-21 10:03:00,
2013-01-21 04:08:00,28.3,15.4,30.33,NNE,26,3.0,8.0,58,0.00,,---,0.00,VWS V14.00,2013-01-21 10:08:00,
2013-01-21 04:13:00,28.2,15.3,30.33,NNE,32,3.0,11.0,58,0.00,,---,0.00,VWS V14.00,2013-01-21 10:13:00,
2013-01-21 04:18:00,28.1,15.2,30.33,NE,47,6.0,12.0,58,0.00,,---,0.00,VWS V14.00,2013-01-21 10:18:00,
2013-01-21 04:23:00,28.1,15.2,30.33,NNE,17,6.0,7.0,58,0.00,,---,0.00,VWS V14.00,2013-01-21 10:23:00,
2013-01-21 04:28:00,28.1,15.2,30.33,NNE,33,9.0,12.0,58,0.00,,---,0.00,VWS V14.00,2013-01-21 10:28:00,
2013-01-21 04:33:00,28.0,15.1,30.33,NNE,32,6.0,12.0,58,0.00,,---,0.00,VWS V14.00,2013-01-21 10:33:00,
2013-01-21 04:38:00,28.0,15.5,30.33,NE,48,7.0,9.0,59,0.00,,---,0.00,VWS V14.00,2013-01-21 10:38:00,
2013-01-21 04:43:00,27.9,15.4,30.34,NNE,25,7.0,11.0,59,0.00,,---,0.00,VWS V14.00,2013-01-21 10:43:00,
2013-01-21 04:48:00,27.9,15.4,30.34,NNE,17,3.0,6.0,59,0.00,,---,0.00,VWS V14.00,2013-01-21 10:48:00,
2013-01-21 04:53:00,27.8,15.7,30.34,NE,38,9.0,11.0,60,0.00,,---,0.00,VWS V14.00,2013-01-21 10:53:00,
2013-01-21 04:58:00,27.6,15.9,30.34,North,10,5.0,11.0,61,0.00,,---,0.00,VWS V14.00,2013-01-21 10:58:00,
2013-01-21 05:03:00,27.5,16.2,30.34,NE,37,5.0,13.0,62,0.00,,---,0.00,VWS V14.00,2013-01-21 11:03:00,
2013-01-21 05:09:00,27.4,16.5,30.34,NNE,22,4.0,9.0,63,0.00,,---,0.00,VWS V14.00,2013-01-21 11:09:00,
2013-01-21 05:14:00,27.2,16.3,30.34,NNE,13,10.0,10.0,63,0.00,,---,0.00,VWS V14.00,2013-01-21 11:14:00,
2013-01-21 05:19:00,27.1,16.2,30.34,NNE,25,5.0,6.0,63,0.00,,---,0.00,VWS V14.00,2013-01-21 11:19:00,
2013-01-21 05:24:00,27.0,16.5,30.34,NNE,20,4.0,10.0,64,0.00,,---,0.00,VWS V14.00,2013-01-21 11:24:00,
2013-01-21 05:29:00,26.9,16.4,30.33,NNE,29,3.0,9.0,64,0.00,,---,0.00,VWS V14.00,2013-01-21 11:29:00,
2013-01-21 05:34:00,26.8,16.3,30.33,NNE,32,0.0,5.0,64,0.00,,---,0.00,VWS V14.00,2013-01-21 11:34:00,
2013-01-21 05:39:00,26.7,16.2,30.33,NNE,16,3.0,5.0,64,0.00,,---,0.00,VWS V14.00,2013-01-21 11:39:00,
2013-01-21 05:44:00,26.6,16.1,30.33,NE,34,0.0,5.0,64,0.00,,---,0.00,VWS V14.00,2013-01-21 11:44:00,
2013-01-21 05:49:00,26.5,16.0,30.33,North,1,5.0,6.0,64,0.00,,---,0.00,VWS V14.00,2013-01-21 11:49:00,
2013-01-21 05:54:00,26.5,16.3,30.33,North,2,3.0,8.0,65,0.00,,---,0.00,VWS V14.00,2013-01-21 11:54:00,
2013-01-21 05:59:00,26.4,16.2,30.33,NNE,33,5.0,6.0,65,0.00,,---,0.00,VWS V14.00,2013-01-21 11:59:00,
2013-01-21 06:04:00,26.3,16.1,30.33,NE,44,2.0,7.0,65,0.00,,---,0.00,VWS V14.00,2013-01-21 12:04:00,
2013-01-21 06:09:00,26.3,16.1,30.33,NNE,32,0.0,4.0,65,0.00,,---,0.00,VWS V14.00,2013-01-21 12:09:00,
2013-01-21 06:14:00,26.2,16.4,30.33,NNE,32,4.0,8.0,66,0.00,,---,0.00,VWS V14.00,2013-01-21 12:14:00,
2013-01-21 06:19:00,26.1,16.3,30.33,NE,39,3.0,6.0,66,0.00,,---,0.00,VWS V14.00,2013-01-21 12:19:00,
2013-01-21 06:24:00,26.1,16.3,30.33,NNE,25,2.0,6.0,66,0.00,,---,0.00,VWS V14.00,2013-01-21 12:24:00,
2013-01-21 06:29:00,26.1,16.0,30.33,NE,44,11.0,11.0,65,0.00,,---,0.00,VWS V14.00,2013-01-21 12:29:00,
2013-01-21 06:34:00,26.1,16.0,30.33,NNE,30,6.0,10.0,65,0.00,,---,0.00,VWS V14.00,2013-01-21 12:34:00,
2013-01-21 06:39:00,26.1,16.0,30.33,NE,40,4.0,10.0,65,0.00,,---,0.00,VWS V14.00,2013-01-21 12:39:00,
2013-01-21 06:44:00,26.0,15.9,30.34,NE,53,4.0,7.0,65,0.00,,---,0.00,VWS V14.00,2013-01-21 12:44:00,
2013-01-21 06:49:00,26.0,15.5,30.34,NNE,33,5.0,10.0,64,0.00,,---,0.00,VWS V14.00,2013-01-21 12:49:00,
2013-01-21 06:54:00,26.0,15.5,30.34,NNE,12,6.0,11.0,64,0.00,,---,0.00,VWS V14.00,2013-01-21 12:54:00,
2013-01-21 06:59:00,25.8,15.7,30.34,North,6,6.0,12.0,65,0.00,,---,0.00,VWS V14.00,2013-01-21 12:59:00,
2013-01-21 07:04:00,25.7,15.6,30.34,NNE,15,2.0,7.0,65,0.00,,---,0.00,VWS V14.00,2013-01-21 13:04:00,
2013-01-21 07:09:00,25.6,15.5,30.34,NNE,23,1.0,6.0,65,0.00,,---,0.00,VWS V14.00,2013-01-21 13:09:00,
2013-01-21 07:14:00,25.5,15.4,30.35,NNE,27,9.0,11.0,65,0.00,,---,0.00,VWS V14.00,2013-01-21 13:14:00,
2013-01-21 07:19:00,25.4,15.3,30.35,North,359,10.0,11.0,65,0.00,,---,0.00,VWS V14.00,2013-01-21 13:19:00,
2013-01-21 07:24:00,25.3,15.2,30.35,NNE,24,9.0,12.0,65,0.00,,---,0.00,VWS V14.00,2013-01-21 13:24:00,
2013-01-21 07:29:00,25.2,15.1,30.36,NNE,18,4.0,4.0,65,0.00,,---,0.00,VWS V14.00,2013-01-21 13:29:00,
2013-01-21 07:35:00,25.1,15.4,30.36,NNE,32,1.0,5.0,66,0.00,,---,0.00,VWS V14.00,2013-01-21 13:35:00,
2013-01-21 07:40:00,25.1,15.0,30.36,NNE,33,4.0,9.0,65,0.00,,---,0.00,VWS V14.00,2013-01-21 13:40:00,
2013-01-21 07:45:00,25.0,15.3,30.36,NE,35,4.0,6.0,66,0.00,,---,0.00,VWS V14.00,2013-01-21 13:45:00,
2013-01-21 07:50:00,25.0,15.3,30.36,NNE,28,4.0,7.0,66,0.00,,---,0.00,VWS V14.00,2013-01-21 13:50:00,
2013-01-21 07:55:00,25.0,15.3,30.36,NNE,28,2.0,9.0,66,0.00,,---,0.00,VWS V14.00,2013-01-21 13:55:00,
2013-01-21 08:00:00,25.0,15.3,30.36,NNE,21,5.0,6.0,66,0.00,,---,0.00,VWS V14.00,2013-01-21 14:00:00,
2013-01-21 08:05:00,25.1,15.4,30.36,NE,40,3.0,6.0,66,0.00,,---,0.00,VWS V14.00,2013-01-21 14:05:00,
2013-01-21 08:11:00,25.1,15.4,30.36,NNE,16,7.0,11.0,66,0.00,,---,0.00,VWS V14.00,2013-01-21 14:11:00,
2013-01-21 08:16:00,25.2,15.4,30.36,North,6,0.0,5.0,66,0.00,,---,0.00,VWS V14.00,2013-01-21 14:16:00,
2013-01-21 08:21:00,25.4,15.6,30.36,NE,37,2.0,4.0,66,0.00,,---,0.00,VWS V14.00,2013-01-21 14:21:00,
2013-01-21 08:26:00,25.6,15.5,30.37,NE,34,3.0,10.0,65,0.00,,---,0.00,VWS V14.00,2013-01-21 14:26:00,
2013-01-21 08:31:00,25.8,15.7,30.37,NE,39,4.0,9.0,65,0.00,,---,0.00,VWS V14.00,2013-01-21 14:31:00,
2013-01-21 08:36:00,25.9,15.8,30.37,NNE,14,0.0,6.0,65,0.00,,---,0.00,VWS V14.00,2013-01-21 14:36:00,
2013-01-21 08:42:00,26.0,15.5,30.37,NE,53,0.0,10.0,64,0.00,,---,0.00,VWS V14.00,2013-01-21 14:42:00,
2013-01-21 08:47:00,26.2,15.7,30.37,NNE,21,6.0,7.0,64,0.00,,---,0.00,VWS V14.00,2013-01-21 14:47:00,
2013-01-21 08:53:00,26.3,15.8,30.37,East,80,4.0,7.0,64,0.00,,---,0.00,VWS V14.00,2013-01-21 14:53:00,
2013-01-21 08:58:00,26.7,15.8,30.38,North,359,4.0,10.0,63,0.00,,---,0.00,VWS V14.00,2013-01-21 14:58:00,
2013-01-21 09:03:00,27.0,15.7,30.38,NE,34,6.0,10.0,62,0.00,,---,0.00,VWS V14.00,2013-01-21 15:03:00,
2013-01-21 09:08:00,27.4,15.7,30.38,North,1,10.0,11.0,61,0.00,,---,0.00,VWS V14.00,2013-01-21 15:08:00,
2013-01-21 09:13:00,27.5,15.4,30.39,NNE,33,0.0,5.0,60,0.00,,---,0.00,VWS V14.00,2013-01-21 15:13:00,
2013-01-21 09:18:00,27.7,15.3,30.39,NNE,27,9.0,12.0,59,0.00,,---,0.00,VWS V14.00,2013-01-21 15:18:00,
2013-01-21 09:23:00,28.0,15.5,30.39,NNE,25,1.0,7.0,59,0.00,,---,0.00,VWS V14.00,2013-01-21 15:23:00,
2013-01-21 09:29:00,28.7,16.6,30.39,NE,51,6.0,6.0,60,0.00,,---,0.00,VWS V14.00,2013-01-21 15:29:00,
2013-01-21 09:34:00,28.3,15.0,30.39,NNE,20,0.0,7.0,57,0.00,,---,0.00,VWS V14.00,2013-01-21 15:34:00,
2013-01-21 09:40:00,28.7,15.8,30.40,North,6,0.0,7.0,58,0.00,,---,0.00,VWS V14.00,2013-01-21 15:40:00,
2013-01-21 09:46:00,28.7,15.8,30.40,NNE,20,5.0,10.0,58,0.00,,---,0.00,VWS V14.00,2013-01-21 15:46:00,
2013-01-21 09:52:00,29.0,15.7,30.40,NNE,14,2.0,11.0,57,0.00,,---,0.00,VWS V14.00,2013-01-21 15:52:00,
2013-01-21 09:57:00,29.6,15.8,30.40,ENE,61,0.0,6.0,56,0.00,,---,0.00,VWS V14.00,2013-01-21 15:57:00,
2013-01-21 10:03:00,29.2,15.1,30.40,North,8,2.0,9.0,55,0.00,,---,0.00,VWS V14.00,2013-01-21 16:03:00,
2013-01-21 10:08:00,29.7,15.5,30.40,NNE,30,6.0,6.0,55,0.00,,---,0.00,VWS V14.00,2013-01-21 16:08:00,
2013-01-21 10:13:00,29.6,15.4,30.39,ENE,57,3.0,11.0,55,0.00,,---,0.00,VWS V14.00,2013-01-21 16:13:00,
2013-01-21 10:18:00,29.9,15.3,30.39,NE,42,6.0,11.0,54,0.00,,---,0.00,VWS V14.00,2013-01-21 16:18:00,
2013-01-21 10:23:00,30.9,15.4,30.39,NE,43,5.0,10.0,52,0.00,,---,0.00,VWS V14.00,2013-01-21 16:23:00,
2013-01-21 10:28:00,30.9,15.4,30.40,NE,37,2.0,14.0,52,0.00,,---,0.00,VWS V14.00,2013-01-21 16:28:00,
2013-01-21 10:33:00,30.9,15.4,30.40,North,5,0.0,11.0,52,0.00,,---,0.00,VWS V14.00,2013-01-21 16:33:00,
2013-01-21 10:38:00,31.4,16.3,30.40,NE,39,5.0,6.0,53,0.00,,---,0.00,VWS V14.00,2013-01-21 16:38:00,
2013-01-21 10:43:00,31.6,15.6,30.40,NE,40,0.0,10.0,51,0.00,,---,0.00,VWS V14.00,2013-01-21 16:43:00,
2013-01-21 10:48:00,32.5,15.9,30.40,NE,44,0.0,7.0,50,0.00,,---,0.00,VWS V14.00,2013-01-21 16:48:00,
2013-01-21 10:53:00,33.0,15.0,30.40,East,80,0.0,6.0,47,0.00,,---,0.00,VWS V14.00,2013-01-21 16:53:00,
2013-01-21 10:58:00,33.6,15.5,30.40,ENE,71,4.0,11.0,47,0.00,,---,0.00,VWS V14.00,2013-01-21 16:58:00,
2013-01-21 11:03:00,33.5,15.4,30.40,NNE,17,1.0,5.0,47,0.00,,---,0.00,VWS V14.00,2013-01-21 17:03:00,
2013-01-21 11:08:00,34.3,16.7,30.40,ENE,61,0.0,0.0,48,0.00,,---,0.00,VWS V14.00,2013-01-21 17:08:00,
2013-01-21 11:13:00,34.1,15.0,30.40,NNE,30,1.0,5.0,45,0.00,,---,0.00,VWS V14.00,2013-01-21 17:13:00,
2013-01-21 11:18:00,34.6,17.4,30.40,NNE,24,2.0,3.0,49,0.00,,---,0.00,VWS V14.00,2013-01-21 17:18:00,
2013-01-21 11:23:00,34.3,15.2,30.40,North,1,0.0,0.0,45,0.00,,---,0.00,VWS V14.00,2013-01-21 17:23:00,
2013-01-21 11:28:00,34.1,15.5,30.39,NE,49,0.0,6.0,46,0.00,,---,0.00,VWS V14.00,2013-01-21 17:28:00,
2013-01-21 11:33:00,34.3,15.2,30.39,NNE,26,0.0,5.0,45,0.00,,---,0.00,VWS V14.00,2013-01-21 17:33:00,
2013-01-21 11:39:00,36.2,15.3,30.39,ENE,63,0.0,0.0,42,0.00,,---,0.00,VWS V14.00,2013-01-21 17:39:00,
2013-01-21 11:44:00,36.2,15.3,30.39,East,97,0.0,2.0,42,0.00,,---,0.00,VWS V14.00,2013-01-21 17:44:00,
2013-01-21 11:49:00,36.1,15.2,30.39,NNE,32,6.0,10.0,42,0.00,,---,0.00,VWS V14.00,2013-01-21 17:49:00,
2013-01-21 11:54:00,36.3,14.9,30.39,NNE,30,0.0,10.0,41,0.00,,---,0.00,VWS V14.00,2013-01-21 17:54:00,
2013-01-21 11:59:00,36.6,14.6,30.38,NE,35,6.0,7.0,40,0.00,,---,0.00,VWS V14.00,2013-01-21 17:59:00,
2013-01-21 12:04:00,37.2,16.2,30.38,NE,56,1.0,1.0,42,0.00,,---,0.00,VWS V14.00,2013-01-21 18:04:00,
2013-01-21 12:09:00,36.5,14.5,30.38,NE,49,0.0,6.0,40,0.00,,---,0.00,VWS V14.00,2013-01-21 18:09:00,
2013-01-21 12:14:00,36.3,14.3,30.37,NNE,16,3.0,3.0,40,0.00,,---,0.00,VWS V14.00,2013-01-21 18:14:00,
2013-01-21 12:20:00,36.5,15.1,30.37,NNE,15,3.0,7.0,41,0.00,,---,0.00,VWS V14.00,2013-01-21 18:20:00,
2013-01-21 12:26:00,36.4,15.0,30.37,NE,55,7.0,8.0,41,0.00,,---,0.00,VWS V14.00,2013-01-21 18:26:00,
2013-01-21 12:31:00,37.5,15.4,30.37,North,3,3.0,8.0,40,0.00,,---,0.00,VWS V14.00,2013-01-21 18:31:00,
2013-01-21 12:36:00,37.6,15.5,30.37,North,10,7.0,9.0,40,0.00,,---,0.00,VWS V14.00,2013-01-21 18:36:00,
2013-01-21 12:41:00,37.5,15.4,30.36,NNE,25,0.0,3.0,40,0.00,,---,0.00,VWS V14.00,2013-01-21 18:41:00,
2013-01-21 12:47:00,36.9,14.3,30.36,NNE,19,5.0,9.0,39,0.00,,---,0.00,VWS V14.00,2013-01-21 18:47:00,
2013-01-21 12:52:00,37.5,16.0,30.36,NE,47,6.0,6.0,41,0.00,,---,0.00,VWS V14.00,2013-01-21 18:52:00,
2013-01-21 12:57:00,38.1,14.8,30.35,NNE,30,7.0,11.0,38,0.00,,---,0.00,VWS V14.00,2013-01-21 18:57:00,
2013-01-21 13:02:00,37.6,15.5,30.35,North,8,0.0,0.0,40,0.00,,---,0.00,VWS V14.00,2013-01-21 19:02:00,
2013-01-21 13:07:00,38.1,15.4,30.35,North,5,6.0,9.0,39,0.00,,---,0.00,VWS V14.00,2013-01-21 19:07:00,
2013-01-21 13:12:00,37.8,15.1,30.34,NNE,14,5.0,7.0,39,0.00,,---,0.00,VWS V14.00,2013-01-21 19:12:00,
2013-01-21 13:17:00,38.7,15.3,30.34,NNE,28,2.0,9.0,38,0.00,,---,0.00,VWS V14.00,2013-01-21 19:17:00,
2013-01-21 13:22:00,38.8,15.4,30.34,NNE,20,8.0,11.0,38,0.00,,---,0.00,VWS V14.00,2013-01-21 19:22:00,
2013-01-21 13:27:00,38.0,15.3,30.33,NNE,15,0.0,8.0,39,0.00,,---,0.00,VWS V14.00,2013-01-21 19:27:00,
2013-01-21 13:32:00,38.1,14.8,30.33,NNE,23,1.0,11.0,38,0.00,,---,0.00,VWS V14.00,2013-01-21 19:32:00,
2013-01-21 13:38:00,38.6,15.8,30.33,NNE,20,0.0,0.0,39,0.00,,---,0.00,VWS V14.00,2013-01-21 19:38:00,
2013-01-21 13:43:00,39.0,15.6,30.33,NE,49,1.0,5.0,38,0.00,,---,0.00,VWS V14.00,2013-01-21 19:43:00,
2013-01-21 13:48:00,39.3,15.2,30.33,NE,34,6.0,8.0,37,0.00,,---,0.00,VWS V14.00,2013-01-21 19:48:00,
2013-01-21 13:53:00,39.0,15.6,30.33,NE,52,6.0,11.0,38,0.00,,---,0.00,VWS V14.00,2013-01-21 19:53:00,
2013-01-21 13:58:00,38.9,14.9,30.33,NE,39,0.0,1.0,37,0.00,,---,0.00,VWS V14.00,2013-01-21 19:58:00,
2013-01-21 14:03:00,39.7,15.6,30.33,NNE,26,0.0,0.0,37,0.00,,---,0.00,VWS V14.00,2013-01-21 20:03:00,
2013-01-21 14:08:00,40.2,15.4,30.33,NNE,21,1.0,3.0,36,0.00,,---,0.00,VWS V14.00,2013-01-21 20:08:00,
2013-01-21 14:13:00,40.1,15.3,30.32,NNE,26,5.0,11.0,36,0.00,,---,0.00,VWS V14.00,2013-01-21 20:13:00,
2013-01-21 14:18:00,40.4,16.2,30.32,North,1,0.0,8.0,37,0.00,,---,0.00,VWS V14.00,2013-01-21 20:18:00,
2013-01-21 14:24:00,41.2,16.3,30.32,ENE,61,0.0,7.0,36,0.00,,---,0.00,VWS V14.00,2013-01-21 20:24:00,
2013-01-21 14:29:00,40.7,15.8,30.32,NNE,22,9.0,11.0,36,0.00,,---,0.00,VWS V14.00,2013-01-21 20:29:00,
2013-01-21 14:34:00,40.7,15.8,30.32,NE,34,3.0,6.0,36,0.00,,---,0.00,VWS V14.00,2013-01-21 20:34:00,
2013-01-21 14:39:00,40.3,16.1,30.32,NNE,16,0.0,0.0,37,0.00,,---,0.00,VWS V14.00,2013-01-21 20:39:00,
2013-01-21 14:45:00,42.3,15.9,30.31,NNE,30,6.0,9.0,34,0.00,,---,0.00,VWS V14.00,2013-01-21 20:45:00,
2013-01-21 14:50:00,41.6,16.0,30.31,NNE,30,0.0,0.0,35,0.00,,---,0.00,VWS V14.00,2013-01-21 20:50:00,
2013-01-21 14:55:00,41.6,16.0,30.31,NE,40,1.0,7.0,35,0.00,,---,0.00,VWS V14.00,2013-01-21 20:55:00,
2013-01-21 15:00:00,40.5,15.7,30.31,NNE,20,5.0,6.0,36,0.00,,---,0.00,VWS V14.00,2013-01-21 21:00:00,
2013-01-21 15:06:00,40.3,15.5,30.31,NNE,25,4.0,7.0,36,0.00,,---,0.00,VWS V14.00,2013-01-21 21:06:00,
2013-01-21 15:11:00,40.4,15.6,30.31,NNE,28,10.0,12.0,36,0.00,,---,0.00,VWS V14.00,2013-01-21 21:11:00,
2013-01-21 15:17:00,40.6,15.8,30.31,NE,40,0.0,1.0,36,0.00,,---,0.00,VWS V14.00,2013-01-21 21:17:00,
2013-01-21 15:23:00,40.2,16.0,30.31,NNE,25,9.0,10.0,37,0.00,,---,0.00,VWS V14.00,2013-01-21 21:23:00,
2013-01-21 15:28:00,40.8,15.9,30.30,North,1,1.0,5.0,36,0.00,,---,0.00,VWS V14.00,2013-01-21 21:28:00,
2013-01-21 15:33:00,41.6,16.6,30.30,NNE,13,0.0,0.0,36,0.00,,---,0.00,VWS V14.00,2013-01-21 21:33:00,
2013-01-21 15:38:00,40.9,16.0,30.30,NNE,30,8.0,9.0,36,0.00,,---,0.00,VWS V14.00,2013-01-21 21:38:00,
2013-01-21 15:43:00,40.2,16.0,30.31,NNE,13,6.0,12.0,37,0.00,,---,0.00,VWS V14.00,2013-01-21 21:43:00,
2013-01-21 15:48:00,40.2,16.0,30.31,NNE,23,4.0,11.0,37,0.00,,---,0.00,VWS V14.00,2013-01-21 21:48:00,
2013-01-21 15:53:00,40.0,15.9,30.31,North,6,6.0,10.0,37,0.00,,---,0.00,VWS V14.00,2013-01-21 21:53:00,
2013-01-21 15:58:00,40.0,16.5,30.30,North,1,4.0,9.0,38,0.00,,---,0.00,VWS V14.00,2013-01-21 21:58:00,
2013-01-21 16:03:00,40.0,15.9,30.30,NNE,27,0.0,6.0,37,0.00,,---,0.00,VWS V14.00,2013-01-21 22:03:00,
2013-01-21 16:08:00,40.2,16.6,30.30,NE,34,0.0,7.0,38,0.00,,---,0.00,VWS V14.00,2013-01-21 22:08:00,
2013-01-21 16:14:00,40.3,16.7,30.30,NNE,33,5.0,12.0,38,0.00,,---,0.00,VWS V14.00,2013-01-21 22:14:00,
2013-01-21 16:19:00,40.5,16.3,30.30,NNE,24,5.0,10.0,37,0.00,,---,0.00,VWS V14.00,2013-01-21 22:19:00,
2013-01-21 16:24:00,40.0,16.5,30.30,NNE,20,0.0,5.0,38,0.00,,---,0.00,VWS V14.00,2013-01-21 22:24:00,
2013-01-21 16:30:00,39.6,16.1,30.30,North,8,0.0,6.0,38,0.00,,---,0.00,VWS V14.00,2013-01-21 22:30:00,
2013-01-21 16:35:00,39.8,16.3,30.30,NNE,25,5.0,7.0,38,0.00,,---,0.00,VWS V14.00,2013-01-21 22:35:00,
2013-01-21 16:40:00,39.6,16.7,30.30,NNE,27,0.0,0.0,39,0.00,,---,0.00,VWS V14.00,2013-01-21 22:40:00,
2013-01-21 16:45:00,40.0,17.6,30.30,NNE,21,0.0,0.0,40,0.00,,---,0.00,VWS V14.00,2013-01-21 22:45:00,
2013-01-21 16:50:00,40.1,16.5,30.30,NNE,16,0.0,8.0,38,0.00,,---,0.00,VWS V14.00,2013-01-21 22:50:00,
2013-01-21 16:55:00,39.7,16.2,30.29,NNE,33,6.0,6.0,38,0.00,,---,0.00,VWS V14.00,2013-01-21 22:55:00,
2013-01-21 17:00:00,39.5,16.6,30.29,NNE,29,0.0,5.0,39,0.00,,---,0.00,VWS V14.00,2013-01-21 23:00:00,
2013-01-21 17:05:00,39.4,16.5,30.29,NE,38,1.0,4.0,39,0.00,,---,0.00,VWS V14.00,2013-01-21 23:05:00,
2013-01-21 17:10:00,39.2,16.3,30.29,NE,39,0.0,0.0,39,0.00,,---,0.00,VWS V14.00,2013-01-21 23:10:00,
2013-01-21 17:15:00,39.1,16.2,30.29,NE,37,0.0,0.0,39,0.00,,---,0.00,VWS V14.00,2013-01-21 23:15:00,
2013-01-21 17:20:00,38.9,16.6,30.29,ENE,66,0.0,0.0,40,0.00,,---,0.00,VWS V14.00,2013-01-21 23:20:00,
2013-01-21 17:25:00,38.8,16.6,30.28,NNE,25,0.0,0.0,40,0.00,,---,0.00,VWS V14.00,2013-01-21 23:25:00,
2013-01-21 17:30:00,38.5,16.3,30.28,NNE,25,0.0,0.0,40,0.00,,---,0.00,VWS V14.00,2013-01-21 23:30:00,
2013-01-21 17:35:00,38.4,16.8,30.28,NNE,25,0.0,0.0,41,0.00,,---,0.00,VWS V14.00,2013-01-21 23:35:00,
2013-01-21 17:40:00,38.2,16.6,30.27,NNE,25,0.0,0.0,41,0.00,,---,0.00,VWS V14.00,2013-01-21 23:40:00,
2013-01-21 17:45:00,38.0,16.4,30.27,NNE,25,0.0,0.0,41,0.00,,---,0.00,VWS V14.00,2013-01-21 23:45:00,
2013-01-21 17:50:00,37.8,16.8,30.27,NNE,25,0.0,0.0,42,0.00,,---,0.00,VWS V14.00,2013-01-21 23:50:00,
2013-01-21 17:55:00,37.7,16.7,30.27,NNE,25,0.0,0.0,42,0.00,,---,0.00,VWS V14.00,2013-01-21 23:55:00,
2013-01-21 18:00:00,37.5,17.0,30.27,NNE,25,0.0,0.0,43,0.00,,---,0.00,VWS V14.00,2013-01-22 00:00:00,
2013-01-21 18:05:00,37.3,16.9,30.27,NNE,25,0.0,0.0,43,0.00,,---,0.00,VWS V14.00,2013-01-22 00:05:00,
2013-01-21 18:10:00,37.1,16.7,30.28,NNE,25,0.0,0.0,43,0.00,,---,0.00,VWS V14.00,2013-01-22 00:10:00,
2013-01-21 18:16:00,37.0,17.1,30.28,NNE,25,0.0,0.0,44,0.00,,---,0.00,VWS V14.00,2013-01-22 00:16:00,
2013-01-21 18:22:00,36.8,17.0,30.28,NNE,25,0.0,0.0,44,0.00,,---,0.00,VWS V14.00,2013-01-22 00:22:00,
2013-01-21 18:27:00,36.7,16.9,30.28,NNE,26,0.0,2.0,44,0.00,,---,0.00,VWS V14.00,2013-01-22 00:27:00,
2013-01-21 18:32:00,36.5,17.2,30.28,NE,34,0.0,1.0,45,0.00,,---,0.00,VWS V14.00,2013-01-22 00:32:00,
2013-01-21 18:37:00,36.2,17.4,30.28,NE,55,0.0,0.0,46,0.00,,---,0.00,VWS V14.00,2013-01-22 00:37:00,
2013-01-21 18:42:00,36.0,17.7,30.28,NE,45,0.0,0.0,47,0.00,,---,0.00,VWS V14.00,2013-01-22 00:42:00,
2013-01-21 18:47:00,35.9,17.6,30.28,ENE,75,1.0,3.0,47,0.00,,---,0.00,VWS V14.00,2013-01-22 00:47:00,
2013-01-21 18:53:00,35.6,17.9,30.28,ENE,58,0.0,0.0,48,0.00,,---,0.00,VWS V14.00,2013-01-22 00:53:00,
2013-01-21 18:58:00,35.3,17.6,30.28,NE,49,0.0,0.0,48,0.00,,---,0.00,VWS V14.00,2013-01-22 00:58:00,
2013-01-21 19:03:00,35.1,17.9,30.28,ENE,66,0.0,2.0,49,0.00,,---,0.00,VWS V14.00,2013-01-22 01:03:00,
2013-01-21 19:08:00,34.8,17.6,30.28,NE,46,0.0,1.0,49,0.00,,---,0.00,VWS V14.00,2013-01-22 01:08:00,
2013-01-21 19:13:00,34.7,18.0,30.28,NE,56,0.0,0.0,50,0.00,,---,0.00,VWS V14.00,2013-01-22 01:13:00,
2013-01-21 19:18:00,34.5,18.2,30.28,ENE,62,0.0,0.0,51,0.00,,---,0.00,VWS V14.00,2013-01-22 01:18:00,
2013-01-21 19:23:00,34.3,18.1,30.28,ENE,64,0.0,0.0,51,0.00,,---,0.00,VWS V14.00,2013-01-22 01:23:00,
2013-01-21 19:28:00,34.2,18.0,30.28,ENE,69,0.0,0.0,51,0.00,,---,0.00,VWS V14.00,2013-01-22 01:28:00,
2013-01-21 19:33:00,34.0,17.8,30.28,ENE,68,0.0,0.0,51,0.00,,---,0.00,VWS V14.00,2013-01-22 01:33:00,
2013-01-21 19:38:00,33.8,18.0,30.28,ENE,68,0.0,0.0,52,0.00,,---,0.00,VWS V14.00,2013-01-22 01:38:00,
2013-01-21 19:43:00,33.7,18.0,30.28,ENE,68,0.0,0.0,52,0.00,,---,0.00,VWS V14.00,2013-01-22 01:43:00,
2013-01-21 19:48:00,33.6,18.3,30.28,NE,36,0.0,1.0,53,0.00,,---,0.00,VWS V14.00,2013-01-22 01:48:00,
2013-01-21 19:53:00,33.4,18.1,30.28,NE,36,0.0,0.0,53,0.00,,---,0.00,VWS V14.00,2013-01-22 01:53:00,
2013-01-21 19:58:00,33.3,18.0,30.28,NE,36,0.0,0.0,53,0.00,,---,0.00,VWS V14.00,2013-01-22 01:58:00,
2013-01-21 20:03:00,33.2,18.4,30.28,NE,36,0.0,0.0,54,0.00,,---,0.00,VWS V14.00,2013-01-22 02:03:00,
2013-01-21 20:09:00,33.1,17.8,30.28,NE,36,0.0,0.0,53,0.00,,---,0.00,VWS V14.00,2013-01-22 02:09:00,
2013-01-21 20:14:00,33.0,18.6,30.28,NE,36,0.0,0.0,55,0.00,,---,0.00,VWS V14.00,2013-01-22 02:14:00,
2013-01-21 20:19:00,33.0,18.2,30.28,NE,36,0.0,0.0,54,0.00,,---,0.00,VWS V14.00,2013-01-22 02:19:00,
2013-01-21 20:24:00,32.9,18.1,30.28,NE,36,0.0,0.0,54,0.00,,---,0.00,VWS V14.00,2013-01-22 02:24:00,
2013-01-21 20:29:00,32.7,17.9,30.29,NE,36,0.0,0.0,54,0.00,,---,0.00,VWS V14.00,2013-01-22 02:29:00,
2013-01-21 20:34:00,32.5,18.1,30.29,NE,36,0.0,0.0,55,0.00,,---,0.00,VWS V14.00,2013-01-22 02:34:00,
2013-01-21 20:40:00,32.4,18.0,30.30,NE,36,0.0,0.0,55,0.00,,---,0.00,VWS V14.00,2013-01-22 02:40:00,
2013-01-21 20:45:00,32.3,18.0,30.30,NE,36,0.0,3.0,55,0.00,,---,0.00,VWS V14.00,2013-01-22 02:45:00,
2013-01-21 20:50:00,32.2,18.3,30.30,NE,36,0.0,1.0,56,0.00,,---,0.00,VWS V14.00,2013-01-22 02:50:00,
2013-01-21 20:55:00,32.2,17.9,30.31,NE,34,0.0,5.0,55,0.00,,---,0.00,VWS V14.00,2013-01-22 02:55:00,
2013-01-21 21:00:00,32.3,18.0,30.31,NNE,32,2.0,3.0,55,0.00,,---,0.00,VWS V14.00,2013-01-22 03:00:00,
2013-01-21 21:05:00,32.4,18.0,30.31,NE,38,0.0,2.0,55,0.00,,---,0.00,VWS V14.00,2013-01-22 03:05:00,
2013-01-21 21:10:00,32.4,18.0,30.31,NE,38,0.0,0.0,55,0.00,,---,0.00,VWS V14.00,2013-01-22 03:10:00,
2013-01-21 21:15:00,32.3,18.0,30.31,NE,38,0.0,0.0,55,0.00,,---,0.00,VWS V14.00,2013-01-22 03:15:00,
2013-01-21 21:20:00,32.3,18.0,30.31,NNE,32,0.0,3.0,55,0.00,,---,0.00,VWS V14.00,2013-01-22 03:20:00,
2013-01-21 21:26:00,32.2,17.9,30.31,NE,39,0.0,0.0,55,0.00,,---,0.00,VWS V14.00,2013-01-22 03:26:00,
2013-01-21 21:31:00,32.1,17.8,30.31,NE,40,0.0,0.0,55,0.00,,---,0.00,VWS V14.00,2013-01-22 03:31:00,
2013-01-21 21:36:00,32.1,18.2,30.31,NE,36,0.0,0.0,56,0.00,,---,0.00,VWS V14.00,2013-01-22 03:36:00,
2013-01-21 21:41:00,32.0,18.1,30.31,NE,36,0.0,0.0,56,0.00,,---,0.00,VWS V14.00,2013-01-22 03:41:00,
2013-01-21 21:46:00,31.9,18.0,30.31,NE,35,0.0,0.0,56,0.00,,---,0.00,VWS V14.00,2013-01-22 03:46:00,
2013-01-21 21:51:00,31.8,17.9,30.31,NE,35,0.0,0.0,56,0.00,,---,0.00,VWS V14.00,2013-01-22 03:51:00,
2013-01-21 21:56:00,31.7,17.8,30.31,NE,35,0.0,0.0,56,0.00,,---,0.00,VWS V14.00,2013-01-22 03:56:00,
2013-01-21 22:01:00,31.6,17.7,30.31,NE,35,0.0,0.0,56,0.00,,---,0.00,VWS V14.00,2013-01-22 04:01:00,
2013-01-21 22:06:00,31.5,17.6,30.31,NE,35,0.0,0.0,56,0.00,,---,0.00,VWS V14.00,2013-01-22 04:06:00,
2013-01-21 22:11:00,31.5,17.6,30.31,NE,35,0.0,0.0,56,0.00,,---,0.00,VWS V14.00,2013-01-22 04:11:00,
2013-01-21 22:16:00,31.4,17.5,30.31,NE,35,0.0,0.0,56,0.00,,---,0.00,VWS V14.00,2013-01-22 04:16:00,
2013-01-21 22:21:00,31.3,17.4,30.31,NE,35,0.0,0.0,56,0.00,,---,0.00,VWS V14.00,2013-01-22 04:21:00,
2013-01-21 22:26:00,31.3,17.9,30.30,NE,35,0.0,0.0,57,0.00,,---,0.00,VWS V14.00,2013-01-22 04:26:00,
2013-01-21 22:31:00,31.2,17.3,30.30,NE,34,0.0,0.0,56,0.00,,---,0.00,VWS V14.00,2013-01-22 04:31:00,
2013-01-21 22:36:00,31.2,17.8,30.30,ENE,65,0.0,0.0,57,0.00,,---,0.00,VWS V14.00,2013-01-22 04:36:00,
2013-01-21 22:41:00,31.1,17.7,30.30,ENE,66,0.0,0.0,57,0.00,,---,0.00,VWS V14.00,2013-01-22 04:41:00,
2013-01-21 22:46:00,31.0,18.0,30.30,ENE,66,0.0,0.0,58,0.00,,---,0.00,VWS V14.00,2013-01-22 04:46:00,
2013-01-21 22:50:00,30.6,17.6,30.30,ENE,65,0.0,0.0,58,0.00,,---,0.00,VWS V14.00,2013-01-22 04:50:00,
2013-01-21 22:51:00,30.8,17.8,30.30,ENE,66,0.0,0.0,58,0.00,,---,0.00,VWS V14.00,2013-01-22 04:51:00,
2013-01-21 22:52:00,30.5,17.5,30.30,ENE,65,0.0,0.0,58,0.00,,---,0.00,VWS V14.00,2013-01-22 04:52:00,
2013-01-21 22:54:00,30.5,17.9,30.30,ENE,65,0.0,0.0,59,0.00,,---,0.00,VWS V14.00,2013-01-22 04:54:00,
2013-01-21 22:55:00,30.4,17.8,30.30,ENE,65,0.0,0.0,59,0.00,,---,0.00,VWS V14.00,2013-01-22 04:55:00,
2013-01-21 22:56:00,30.3,17.7,30.30,ENE,65,0.0,0.0,59,0.00,,---,0.00,VWS V14.00,2013-01-22 04:56:00,
2013-01-21 22:57:00,30.7,17.7,30.30,ENE,65,0.0,0.0,58,0.00,,---,0.00,VWS V14.00,2013-01-22 04:57:00,
2013-01-21 22:58:00,30.3,17.7,30.30,ENE,65,0.0,0.0,59,0.00,,---,0.00,VWS V14.00,2013-01-22 04:58:00,
2013-01-21 22:59:00,30.3,17.7,30.30,ENE,65,0.0,0.0,59,0.00,,---,0.00,VWS V14.00,2013-01-22 04:59:00,
2013-01-21 23:00:00,30.3,17.7,30.29,ENE,65,0.0,0.0,59,0.00,,---,0.00,VWS V14.00,2013-01-22 05:00:00,
2013-01-21 23:01:00,30.3,17.7,30.29,ENE,65,0.0,0.0,59,0.00,,---,0.00,VWS V14.00,2013-01-22 05:01:00,
2013-01-21 23:02:00,30.3,17.7,30.29,ENE,65,0.0,0.0,59,0.00,,---,0.00,VWS V14.00,2013-01-22 05:02:00,
2013-01-21 23:03:00,30.3,17.7,30.29,ENE,65,0.0,0.0,59,0.00,,---,0.00,VWS V14.00,2013-01-22 05:03:00,
2013-01-21 23:04:00,30.3,17.7,30.29,ENE,65,0.0,0.0,59,0.00,,---,0.00,VWS V14.00,2013-01-22 05:04:00,
2013-01-21 23:05:00,30.3,17.7,30.29,ENE,65,0.0,0.0,59,0.00,,---,0.00,VWS V14.00,2013-01-22 05:05:00,
2013-01-21 23:06:00,30.3,17.7,30.29,ENE,65,0.0,0.0,59,0.00,,---,0.00,VWS V14.00,2013-01-22 05:06:00,
2013-01-21 23:07:00,30.3,17.7,30.29,ENE,66,0.0,0.0,59,0.00,,---,0.00,VWS V14.00,2013-01-22 05:07:00,
2013-01-21 23:08:00,30.3,17.7,30.29,ENE,67,0.0,0.0,59,0.00,,---,0.00,VWS V14.00,2013-01-22 05:08:00,
2013-01-21 23:09:00,30.3,17.7,30.29,ENE,67,0.0,0.0,59,0.00,,---,0.00,VWS V14.00,2013-01-22 05:09:00,
2013-01-21 23:10:00,30.3,17.7,30.29,ENE,67,0.0,0.0,59,0.00,,---,0.00,VWS V14.00,2013-01-22 05:10:00,
2013-01-21 23:11:00,30.3,17.7,30.29,East,91,0.0,5.0,59,0.00,,---,0.00,VWS V14.00,2013-01-22 05:11:00,
2013-01-21 23:12:00,30.4,17.8,30.29,East,91,0.0,0.0,59,0.00,,---,0.00,VWS V14.00,2013-01-22 05:12:00,
2013-01-21 23:13:00,30.4,17.8,30.29,East,91,0.0,0.0,59,0.00,,---,0.00,VWS V14.00,2013-01-22 05:13:00,
2013-01-21 23:14:00,30.4,17.8,30.29,East,91,0.0,0.0,59,0.00,,---,0.00,VWS V14.00,2013-01-22 05:14:00,
2013-01-21 23:15:00,30.4,17.8,30.29,East,91,0.0,0.0,59,0.00,,---,0.00,VWS V14.00,2013-01-22 05:15:00,
2013-01-21 23:16:00,30.3,17.7,30.29,East,91,0.0,0.0,59,0.00,,---,0.00,VWS V14.00,2013-01-22 05:16:00,
2013-01-21 23:17:00,30.3,17.7,30.29,East,91,0.0,0.0,59,0.00,,---,0.00,VWS V14.00,2013-01-22 05:17:00,
2013-01-21 23:18:00,30.3,17.7,30.29,East,91,0.0,0.0,59,0.00,,---,0.00,VWS V14.00,2013-01-22 05:18:00,
2013-01-21 23:19:00,30.3,17.7,30.29,East,90,0.0,0.0,59,0.00,,---,0.00,VWS V14.00,2013-01-22 05:19:00,
2013-01-21 23:20:00,30.3,18.1,30.29,ENE,62,0.0,1.0,60,0.00,,---,0.00,VWS V14.00,2013-01-22 05:20:00,
2013-01-21 23:21:00,30.3,17.7,30.29,ENE,61,0.0,0.0,59,0.00,,---,0.00,VWS V14.00,2013-01-22 05:21:00,
2013-01-21 23:22:00,30.3,17.7,30.29,ENE,61,0.0,0.0,59,0.00,,---,0.00,VWS V14.00,2013-01-22 05:22:00,
2013-01-21 23:23:00,30.3,18.1,30.29,NE,43,0.0,0.0,60,0.00,,---,0.00,VWS V14.00,2013-01-22 05:23:00,
2013-01-21 23:24:00,30.2,18.0,30.29,NE,41,0.0,0.0,60,0.00,,---,0.00,VWS V14.00,2013-01-22 05:24:00,
2013-01-21 23:25:00,30.2,18.0,30.29,NE,41,0.0,0.0,60,0.00,,---,0.00,VWS V14.00,2013-01-22 05:25:00,
2013-01-21 23:26:00,30.2,18.0,30.29,NE,41,0.0,0.0,60,0.00,,---,0.00,VWS V14.00,2013-01-22 05:26:00,
2013-01-21 23:27:00,30.2,18.0,30.29,NE,41,0.0,0.0,60,0.00,,---,0.00,VWS V14.00,2013-01-22 05:27:00,
2013-01-21 23:28:00,30.2,18.0,30.29,NE,41,0.0,0.0,60,0.00,,---,0.00,VWS V14.00,2013-01-22 05:28:00,
2013-01-21 23:29:00,30.2,18.0,30.29,NE,41,0.0,0.0,60,0.00,,---,0.00,VWS V14.00,2013-01-22 05:29:00,
2013-01-21 23:30:00,30.2,18.0,30.29,NE,41,0.0,0.0,60,0.00,,---,0.00,VWS V14.00,2013-01-22 05:30:00,
2013-01-21 23:31:00,30.2,18.0,30.29,NE,41,0.0,0.0,60,0.00,,---,0.00,VWS V14.00,2013-01-22 05:31:00,
2013-01-21 23:36:00,30.1,17.9,30.29,NE,41,0.0,0.0,60,0.00,,---,0.00,VWS V14.00,2013-01-22 05:36:00,
2013-01-21 23:39:00,30.0,17.8,30.29,NE,41,0.0,0.0,60,0.00,,---,0.00,VWS V14.00,2013-01-22 05:39:00,
2013-01-21 23:40:00,30.0,18.2,30.29,NE,41,0.0,0.0,61,0.00,,---,0.00,VWS V14.00,2013-01-22 05:40:00,
2013-01-21 23:41:00,30.0,18.2,30.29,NE,41,0.0,0.0,61,0.00,,---,0.00,VWS V14.00,2013-01-22 05:41:00,
2013-01-21 23:42:00,30.2,18.0,30.29,NE,41,0.0,0.0,60,0.00,,---,0.00,VWS V14.00,2013-01-22 05:42:00,
2013-01-21 23:44:00,29.9,17.7,30.29,NE,41,0.0,0.0,60,0.00,,---,0.00,VWS V14.00,2013-01-22 05:44:00,
2013-01-21 23:45:00,29.9,17.7,30.28,NE,41,0.0,0.0,60,0.00,,---,0.00,VWS V14.00,2013-01-22 05:45:00,
2013-01-21 23:46:00,29.9,17.7,30.28,NE,41,0.0,0.0,60,0.00,,---,0.00,VWS V14.00,2013-01-22 05:46:00,
2013-01-21 23:47:00,30.1,17.9,30.29,NE,41,0.0,0.0,60,0.00,,---,0.00,VWS V14.00,2013-01-22 05:47:00,
2013-01-21 23:48:00,29.9,18.1,30.28,NE,41,0.0,0.0,61,0.00,,---,0.00,VWS V14.00,2013-01-22 05:48:00,
2013-01-21 23:49:00,29.9,18.1,30.28,NE,41,0.0,0.0,61,0.00,,---,0.00,VWS V14.00,2013-01-22 05:49:00,
2013-01-21 23:50:00,29.8,18.0,30.28,NE,41,0.0,0.0,61,0.00,,---,0.00,VWS V14.00,2013-01-22 05:50:00,
2013-01-21 23:51:00,29.8,18.0,30.28,NE,41,0.0,0.0,61,0.00,,---,0.00,VWS V14.00,2013-01-22 05:51:00,
2013-01-21 23:52:00,29.8,18.0,30.28,NE,41,0.0,0.0,61,0.00,,---,0.00,VWS V14.00,2013-01-22 05:52:00,
2013-01-21 23:53:00,29.9,17.7,30.29,NE,41,0.0,0.0,60,0.00,,---,0.00,VWS V14.00,2013-01-22 05:53:00,
2013-01-21 23:54:00,29.7,17.9,30.28,NE,41,0.0,0.0,61,0.00,,---,0.00,VWS V14.00,2013-01-22 05:54:00,
2013-01-21 23:56:00,29.7,17.9,30.28,NE,40,0.0,0.0,61,0.00,,---,0.00,VWS V14.00,2013-01-22 05:56:00,
2013-01-21 23:57:00,29.7,17.9,30.28,NE,39,0.0,0.0,61,0.00,,---,0.00,VWS V14.00,2013-01-22 05:57:00,
2013-01-21 23:58:00,29.7,17.9,30.28,NE,43,2.0,7.0,61,0.00,,---,0.00,VWS V14.00,2013-01-22 05:58:00,
2013-01-21 23:59:00,29.7,17.9,30.28,NE,39,0.0,4.0,61,0.00,,---,0.00,VWS V14.00,2013-01-22 05:59:00,